SAUDISAT 1C (SO-50) (27607 NORAD) Tracking and Keplerian Element Data

This shows tracking and keplerian element data for the satellite.

Feedback or suggestion? Click here.




ElementValue
Catalog27607
NameSAUDISAT 1C (SO-50)
Epoch Orbit86506
Epoch Day20.77905608
Epoch Year2019
RAAN144.8654
Inclination64.5547
Eccentricity0.0081156
Argument of Perigee284.7723
Mean Anonmoly74.4397
Mean Motion14.75513301
Decay Rate-5.3E-07
L11 27607U 02058C 19020.77905608 -.00000053 00000-0 13533-4 0 9999
L22 27607 64.5547 144.8654 0081156 284.7723 74.4397 14.75513301865060

Live tracking and technical data element details for SAUDISAT 1C (SO-50) (NORAD 27607). SAUDISAT 1C (SO-50) can be tracked NOW for your location showing map with azimuth and elevation plus other details from your city location.

Track the satellite on the map from your city or location and see movement details for azimuth, elevation, latitude, longitude, range, height, and movement on the map or in text.







IsCatalogInMostPopularTable: catalog: 27607, numindb: 137
Update: records affected: 1



GetName: 27607 SAUDISAT 1C (SO-50)

Hit Count: updated at: Mon, 21 Jan 2019 17:48:16 GMT